Location: Unspecified
(0.0000°N, 0.0000°E)
Time: 01:58:57
(UTC+00:00)

Tiros 1 despin weight - Pass Details

Date: 04 October 2020
Orbit: 594 x 641 km, 48.2° (Epoch: 25 October)

Event Time Altitude Azimuth Distance (km) Brightness Sun altitude
Rises 19:03:46 0° 299° (WNW) 2,923 ? -18.7°
Reaches altitude 10° 19:06:25 10° 285° (WNW) 2,020 ? -19.4°
Maximum altitude 19:10:13 25° 230° (SW) 1,300 ? -20.4°
Drops below altitude 10° 19:14:02 10° 175° (S) 2,027 ? -21.3°
Enters shadow 19:16:24 - 163° (SSE) 2,822 ? -21.9°
